Location: Buchloe
(48.0161°N, 10.7316°E)
Time: 00:40:02
(UTC+02:00)

ISS - Visible Passes

Search period start: 17 October 2019 00:00
Search period end: 27 October 2019 00:00
Orbit: 411 x 421 km, 51.6° (Epoch: 16 October)

Date Brightness Start Highest point End Pass type
(mag) Time Alt. Az. Time Alt. Az. Time Alt. Az.
24 Oct -0.9 06:49:34 10° S 06:51:48 17° SE 06:54:03 10° E visible
25 Oct -0.6 06:02:45 10° SE 06:03:28 11° SE 06:04:11 10° ESE visible
26 Oct -2.3 06:47:58 10° SW 06:51:06 36° SE 06:54:13 10° ENE visible
